{"data":{"norad_id":52453,"epoch":"2026-09-19T15:43:23.127456Z","epoch_age_seconds":132625,"freshness":"FRESH","line1":"1 52453U 22049C   26262.65512879  .00000838  00000+0  34933-4 0  9991","line2":"2 52453  53.1610 273.5141 0001220  87.9649 272.1494 15.35405167241450","mean_motion":15.35405167,"eccentricity":0.000122,"inclination_deg":53.161,"raan_deg":273.5141,"arg_perigee_deg":87.9649,"mean_anomaly_deg":272.1494,"bstar":3.4933e-5,"rev_number":24145,"period_min":93.786319790338,"perigee_km":458.88308381312,"apogee_km":460.55152026282,"semimajor_km":6837.854302038,"source":"CELESTRAK","updated_at":"2026-09-20T09:00:40.031849Z"}}